Nassau, Bahamas

10:24 AM EDT on April 30, 2017 (GMT -0400)
Nassau International

Weather History for MYNN - April, 2014

Change the Weather History Date:

Saturday, April 12, 2014

  Actual Average Record
Temperature  
Mean Temperature 76 °F -  
Max Temperature 82 °F 83 °F 89 °F (2007)
Min Temperature 69 °F 68 °F 62 °F (2012)
Cooling Degree Days 10    
Growing Degree Days 26 (Base 50)    
Moisture  
Dew Point 68 °F    
Average Humidity 75    
Maximum Humidity 89    
Minimum Humidity 60    
Precipitation  
Precipitation 0.00 in 0.10 in - ()
Sea Level Pressure  
Sea Level Pressure 30.10 in    
Wind  
Wind Speed 5 mph ()    
Max Wind Speed 12 mph    
Max Gust Speed -    
Visibility 6.7 miles    
Events      
Averages and records for this station are not official NWS values.
T = Trace of Precipitation, MM = Missing Value Source: Averaged Metar Reports

Daily Weather History Graph

Daily Weather History Graph

Search for Another Location

Airport or City:

Trip Planner

Search our weather history database for the weather conditions in past years. The results will help you decide how hot, cold, wet, or windy it might be!

Date:

Astronomy

Apr. 12, 2014 Rise Set
Actual Time 6:50 AM EDT 7:31 PM EDT
Civil Twilight 6:27 AM EDT 7:54 PM EDT
Nautical Twilight 5:59 AM EDT 8:21 PM EDT
Astronomical Twilight 5:32 AM EDT 8:49 PM EDT
Moon 5:21 PM EDT (4/12) 4:59 AM EDT (4/12)
Length of Visible Light 13h 27m
Length of Day
12h 40m
Waxing Gibbous, 93% of the Moon is Illuminated
Apr 12
Waxing Gibbous
Apr 15
Full
Apr 22
Last Quarter
Apr 29
New
May 6
First Quarter

Hourly Weather History & Observations

Time (EDT) Temp. Heat Index Dew Point Humidity Pressure Visibility Wind Dir Wind Speed Gust Speed Precip Events Conditions
12:00 AM 73.4 °F - 66.2 °F 78% 30.15 in 6.2 mi Variable 1.2 mph - N/A   Mostly Cloudy
1:00 AM 71.6 °F - 66.2 °F 83% 30.13 in 6.2 mi Calm Calm - N/A   Mostly Cloudy
2:00 AM 71.6 °F - 68.0 °F 88% 30.12 in 6.2 mi Calm Calm - N/A   Mostly Cloudy
3:00 AM 71.6 °F - 66.2 °F 83% 30.10 in 6.2 mi Calm Calm - N/A   Mostly Cloudy
4:00 AM 73.4 °F - 66.2 °F 78% 30.08 in 6.2 mi Variable 2.3 mph - N/A   Mostly Cloudy
5:00 AM 71 °F - 67 °F 82% 30.09 in 8 mi Calm Calm - -   Partly Cloudy
5:00 AM 69.8 °F - 66.2 °F 88% 30.08 in 6.2 mi Calm Calm - N/A   Mostly Cloudy
6:00 AM 71.6 °F - 68.0 °F 88% 30.09 in 6.2 mi NNE 3.5 mph - N/A   Mostly Cloudy
7:00 AM 73.4 °F - 66.2 °F 78% 30.11 in 6.2 mi NNE 3.5 mph - N/A   Mostly Cloudy
8:00 AM 75.2 °F - 69.8 °F 83% 30.13 in 6.2 mi North 6.9 mph - N/A   Mostly Cloudy
9:00 AM 75.2 °F - 66.2 °F 73% 30.14 in 6.2 mi North 11.5 mph - N/A   Mostly Cloudy
10:00 AM 77.0 °F - 66.2 °F 69% 30.15 in 6.2 mi North 11.5 mph - N/A   Scattered Clouds
11:00 AM 81 °F - 70 °F 62% 30.15 in 8 mi North 11.5 mph - -   Partly Cloudy
11:00 AM 80.6 °F 83.9 °F 69.8 °F 70% 30.15 in 6.2 mi North 11.5 mph - N/A   Scattered Clouds
12:00 PM 78.8 °F - 66.2 °F 65% 30.14 in 6.2 mi North 11.5 mph - N/A   Scattered Clouds
1:00 PM 78.8 °F - 66.2 °F 65% 30.13 in 6.2 mi NNE 11.5 mph - N/A   Scattered Clouds
2:00 PM 82 °F - 71 °F 63% 30.11 in 8 mi NNE 11.5 mph - -   Partly Cloudy
2:00 PM 82.4 °F 87.2 °F 71.6 °F 70% 30.11 in 6.2 mi NNE 11.5 mph - N/A   Scattered Clouds
3:00 PM 80.6 °F 83.2 °F 68.0 °F 65% 30.07 in 6.2 mi NE 10.4 mph - N/A   Scattered Clouds
4:00 PM 80.6 °F 82.7 °F 66.2 °F 61% 30.06 in 6.2 mi NE 8.1 mph - N/A   Scattered Clouds
5:00 PM 81 °F - 69 °F 60% 30.05 in 9 mi NE 8.1 mph - -   Partly Cloudy
5:00 PM 80.6 °F 83.9 °F 69.8 °F 70% 30.04 in 6.2 mi NE 8.1 mph - N/A   Scattered Clouds
6:00 PM 78.8 °F - 66.2 °F 65% 30.05 in 6.2 mi NNE 9.2 mph - N/A   Partly Cloudy
7:00 PM 77.0 °F - 68.0 °F 74% 30.06 in 6.2 mi NE 8.1 mph - N/A   Scattered Clouds
8:00 PM 76 °F - 71 °F 81% 30.05 in 9 mi NNE 6.9 mph - -  
8:00 PM 77.0 °F - 71.6 °F 83% 30.05 in 6.2 mi NNE 6.9 mph - N/A   Scattered Clouds
9:00 PM 75.2 °F - 69.8 °F 83% 30.07 in 6.2 mi East 5.8 mph - N/A   Scattered Clouds
10:00 PM 75.2 °F - 69.8 °F 83% 30.09 in 6.2 mi ENE 5.8 mph - N/A   Scattered Clouds
11:00 PM 76 °F - 71 °F 80% 30.09 in 9 mi East 9.2 mph - -   Partly Cloudy
11:00 PM 75.2 °F - 71.6 °F 89% 30.08 in 6.2 mi East 9.2 mph - N/A   Scattered Clouds